Tracking 25953 objects as of 15-Aug-2022
HD Live streaming from Space Station
objects crossing your sky now

CZ-4 R/B

Track CZ-4 R/B now!
10-day predictions
CZ-4 R/B is classified as:


NORAD ID: 29507
Int'l Code: 2006-046C
Perigee: 536.5 km
Apogee: 599.6 km
Inclination: 97.7 °
Period: 95.9 minutes
Semi major axis: 6939 km
RCS: 4.43 m2 (large)
Launch date: October 23, 2006
Source: People's Republic of China (PRC)
Launch site: Taiyaun Space Center, China (TSC)

Note: This is a ROCKET BODY
aabbcc
Your satellite tracking list
Your tracking list is empty




NASA's NSSDC Master Catalog

Two Line Element Set (TLE):
1 29507U 06046C   22226.70298400  .00002093  00000-0  16124-3 0  9994
2 29507  97.7234 256.5500 0045412  35.1891 325.2318 15.01944666863613
Source of the keplerian elements: AFSPC